Preview of NWS' New Version of Forecast
This preview is not operational and should not be used for support decisions.

Regional Weather Roundup (RWR)

Issued by National Weather Service (NWS)

                            
000
ASUS43 KLSX 182357
RWRMO 

WEATHER SUMMARY FOR MISSOURI
NATIONAL WEATHER SERVICE SPRINGFIELD MO
700 PM CDT THU JUL 18 2019

NOTE: "FAIR" INDICATES FEW OR NO CLOUDS BELOW 12,000 FEET WITH NO
       SIGNIFICANT WEATHER AND/OR OBSTRUCTIONS TO VISIBILITY.
       CURRENT SKY AND/OR WEATHER CONDITIONS ARE NOT AVAILABLE FOR
       CHILLICOTHE AND FARMINGTON.

MOZ001>031-035>038-043-044-053-054-190100-
...NORTHERN AND WESTERN MISSOURI...
  
CITY           SKY/WX    TMP DP  RH WIND       PRES   REMARKS
KANSAS CTY INT SUNNY     92  75  57 SW18G25   29.76R HX 103           
6HR MIN TEMP:  92; 6HR MAX TEMP:  96;                                

LEE'S SUMMIT   LGT RAIN  92  73  53 S21G31    29.78S HX 100           
6HR MIN TEMP:  92; 6HR MAX TEMP:  95; 6HR PCP: TRACE;                

ST JOSEPH      SUNNY     94  76  55 S14       29.72S HX 106           
6HR MIN TEMP:  92; 6HR MAX TEMP:  96;                                

CHILLICOTHE      N/A     93  75  55 S15G28    29.76S HX 104           
6HR MIN TEMP:  91; 6HR MAX TEMP:  97;                                

     
$$
MOZ066>068-077>081-088>096-101>105-190100-
...SOUTHWEST MISSOURI...
  
CITY           SKY/WX    TMP DP  RH WIND       PRES   REMARKS
SPRINGFIELD    SUNNY     90  70  51 SW14G25   29.88F HX  95           
6HR MIN TEMP:  90; 6HR MAX TEMP:  95;                                

JOPLIN         SUNNY     89  72  56 S17G26    29.86F HX  96           
6HR MIN TEMP:  89; 6HR MAX TEMP:  93;                                

BRANSON        MOSUNNY   90  73  58 S9        29.93F HX  98           
               
$$
MOZ032>034-039>042-045>050-055>058-069>072-190100-
...CENTRAL MISSOURI...  
  
CITY           SKY/WX    TMP DP  RH WIND       PRES   REMARKS
COLUMBIA       NOT AVBL                                               
ROLLA          MOSUNNY   89  74  60 S12       29.88F HX  98           
6HR MIN TEMP:  89; 6HR MAX TEMP:  92;                                

SEDALIA        SUNNY     87  73  62 SW14      29.83S HX  94           
6HR MIN TEMP:  87; 6HR MAX TEMP:  91;                                

               
$$
MOZ051-052-059>065-190100-
...EAST CENTRAL MISSOURI...
  
CITY           SKY/WX    TMP DP  RH WIND       PRES   REMARKS
ST LOUIS INTL  MOSUNNY   93  72  50 SW14G23   29.85S HX 101           
6HR MIN TEMP:  93; 6HR MAX TEMP:  96;                                

                   
$$
MOZ072>076-082>087-097>100-106>115-190100-
...SOUTH CENTRAL AND SOUTHEAST MISSOURI...
  
CITY           SKY/WX    TMP DP  RH WIND       PRES   REMARKS
CAPE GIRARDEAU FAIR      88  78  72 S8        29.90F HX 101           
6HR MIN TEMP:  85; 6HR MAX TEMP:  90;                                

POPLAR BLUFF   FAIR      88  81  79 S10       29.90S HX 106           
6HR MIN TEMP:  84; 6HR MAX TEMP:  91;                                

WEST PLAINS    SUNNY     89  74  60 S7        29.93F HX  98           
6HR MIN TEMP:  87; 6HR MAX TEMP:  91;                                

                                       
$$